AFR4PA LEBB-LFRS

Flight info

Callsign AFR4PA
Flight time 0h 48m
Altitude 30000
Route MAPAX N867 NENEM DCT YURZI UL14 TEPRA DCT EPIXO
Aircraft A320/M-SDE3FGHIRWY/LB1

Departure

Time 2026-05-01 13:46
Airport Bilbao Airport (LEBB)

Arrival

Time 2026-05-01 14:34
Airport Nantes Atlantique Airport (LFRS)
Time Latitude Longitude Altitude Speed Heading
2026-05-01 13:25 43.30409 -2.90578 120 ft 0 kts 26°
2026-05-01 13:39 43.30404 -2.90581 132 ft 4 kts 27°
2026-05-01 13:39 43.30380 -2.90599 132 ft 4 kts 36°
2026-05-01 13:40 43.30361 -2.90623 132 ft 4 kts 60°
2026-05-01 13:40 43.30356 -2.90650 132 ft 1 kts 116°
2026-05-01 13:42 43.30341 -2.90616 132 ft 8 kts 127°
2026-05-01 13:42 43.30266 -2.90541 132 ft 18 kts 146°
2026-05-01 13:42 43.30149 -2.90612 132 ft 23 kts 262°
2026-05-01 13:43 43.30214 -2.90837 132 ft 28 kts 296°
2026-05-01 13:43 43.30303 -2.91080 132 ft 30 kts 297°
2026-05-01 13:43 43.30400 -2.91342 132 ft 32 kts 296°
2026-05-01 13:43 43.30502 -2.91620 132 ft 33 kts 297°
2026-05-01 13:44 43.30609 -2.91911 132 ft 35 kts 297°
2026-05-01 13:44 43.30720 -2.92215 132 ft 36 kts 296°
2026-05-01 13:44 43.30797 -2.92432 132 ft 13 kts 291°
2026-05-01 13:44 43.30744 -2.92503 132 ft 14 kts 168°
2026-05-01 13:45 43.30621 -2.92429 133 ft 25 kts 139°
2026-05-01 13:45 43.30491 -2.92102 132 ft 66 kts 116°
2026-05-01 13:45 43.30187 -2.91270 131 ft 126 kts 116°
2026-05-01 13:45 43.29726 -2.90010 285 ft 160 kts 116°
2026-05-01 13:46 43.29230 -2.88671 1000 ft 159 kts 117°
2026-05-01 13:46 43.28712 -2.87319 1794 ft 161 kts 117°
2026-05-01 13:46 43.28187 -2.85882 2368 ft 178 kts 117°
2026-05-01 13:46 43.27607 -2.84277 2855 ft 197 kts 118°
2026-05-01 13:47 43.26943 -2.82502 3097 ft 224 kts 118°
2026-05-01 13:47 43.26178 -2.80455 3269 ft 257 kts 118°
2026-05-01 13:47 43.25369 -2.78250 4148 ft 260 kts 118°
2026-05-01 13:47 43.24552 -2.75994 4963 ft 265 kts 116°
2026-05-01 13:48 43.24230 -2.73514 5878 ft 271 kts 84°
2026-05-01 13:48 43.24973 -2.71119 6666 ft 283 kts 51°
2026-05-01 13:48 43.26610 -2.69633 7492 ft 288 kts 15°
2026-05-01 13:48 43.28604 -2.69350 8297 ft 292 kts 358°
2026-05-01 13:49 43.30648 -2.69514 9051 ft 297 kts 353°
2026-05-01 13:49 43.32715 -2.69879 9796 ft 302 kts 349°
2026-05-01 13:49 43.34786 -2.70464 10535 ft 305 kts 343°
2026-05-01 13:49 43.36815 -2.71385 11104 ft 315 kts 336°
2026-05-01 13:50 43.38850 -2.72742 11303 ft 336 kts 327°
2026-05-01 13:50 43.40831 -2.74610 11536 ft 353 kts 318°
2026-05-01 13:50 43.42633 -2.76942 12108 ft 358 kts 309°
2026-05-01 13:50 43.44169 -2.79589 12804 ft 359 kts 301°
2026-05-01 13:51 43.45426 -2.82552 13508 ft 359 kts 293°
2026-05-01 13:51 43.46347 -2.85749 14158 ft 360 kts 284°
2026-05-01 13:51 43.46904 -2.89105 14767 ft 360 kts 276°
2026-05-01 13:51 43.47123 -2.92538 15370 ft 362 kts 272°
2026-05-01 13:52 43.47771 -2.95914 15937 ft 372 kts 295°
2026-05-01 13:52 43.49426 -2.98663 16503 ft 382 kts 320°
2026-05-01 13:52 43.51792 -3.00397 17091 ft 389 kts 338°
2026-05-01 13:52 43.54420 -3.01379 17672 ft 394 kts 347°
2026-05-01 13:53 43.57146 -3.01943 18255 ft 398 kts 351°
2026-05-01 13:53 43.62686 -3.02866 19247 ft 404 kts 350°
2026-05-01 13:53 43.65468 -3.03478 19724 ft 406 kts 348°
2026-05-01 13:54 43.68253 -3.04216 20197 ft 409 kts 346°
2026-05-01 13:54 43.71043 -3.05042 20671 ft 411 kts 346°
2026-05-01 13:54 43.73846 -3.05903 21141 ft 414 kts 346°
2026-05-01 13:54 43.76669 -3.06767 21606 ft 417 kts 346°
2026-05-01 13:55 43.79514 -3.07621 22056 ft 420 kts 346°
2026-05-01 13:55 43.82381 -3.08464 22495 ft 423 kts 347°
2026-05-01 13:55 43.85270 -3.09297 22940 ft 425 kts 347°
2026-05-01 13:55 43.88180 -3.10130 23368 ft 428 kts 347°
2026-05-01 13:56 43.91109 -3.10964 23779 ft 431 kts 347°
2026-05-01 13:56 43.94055 -3.11805 24149 ft 433 kts 347°
2026-05-01 13:56 43.97013 -3.12657 24525 ft 435 kts 347°
2026-05-01 13:56 43.99944 -3.13505 24883 ft 437 kts 347°
2026-05-01 13:57 44.02942 -3.14257 25236 ft 439 kts 353°
2026-05-01 13:57 44.05998 -3.14398 25587 ft 442 kts
2026-05-01 13:57 44.09064 -3.13844 25935 ft 445 kts 11°
2026-05-01 13:57 44.12095 -3.12913 26278 ft 447 kts 12°
2026-05-01 13:58 44.15138 -3.11974 26626 ft 449 kts 11°
2026-05-01 13:58 44.18193 -3.11033 26974 ft 450 kts 11°
2026-05-01 13:58 44.21260 -3.10087 27320 ft 452 kts 11°
2026-05-01 13:58 44.24331 -3.09141 27661 ft 454 kts 11°
2026-05-01 13:59 44.27428 -3.08188 27992 ft 456 kts 11°
2026-05-01 13:59 44.30524 -3.07235 28315 ft 458 kts 11°
2026-05-01 13:59 44.33647 -3.06272 28613 ft 459 kts 11°
2026-05-01 13:59 44.36774 -3.05304 28913 ft 461 kts 11°
2026-05-01 14:00 44.39914 -3.04333 29206 ft 463 kts 11°
2026-05-01 14:00 44.43058 -3.03363 29495 ft 465 kts 11°
2026-05-01 14:00 44.46220 -3.02386 29773 ft 466 kts 11°
2026-05-01 14:00 44.49402 -3.01399 30053 ft 468 kts 11°
2026-05-01 14:01 44.52576 -3.00414 30168 ft 463 kts 11°
2026-05-01 14:01 44.55698 -2.99440 30167 ft 457 kts 11°
2026-05-01 14:01 44.61873 -2.97503 30176 ft 454 kts 11°
2026-05-01 14:02 44.68035 -2.95572 30180 ft 454 kts 11°
2026-05-01 14:02 44.74198 -2.93648 30175 ft 454 kts 11°
2026-05-01 14:03 44.80366 -2.91723 30178 ft 454 kts 11°
2026-05-01 14:03 44.86522 -2.89793 30178 ft 454 kts 11°
2026-05-01 14:04 44.92683 -2.87852 30178 ft 453 kts 11°
2026-05-01 14:04 44.97803 -2.86226 30174 ft 453 kts 11°
2026-05-01 14:05 45.04960 -2.83971 30173 ft 454 kts 11°
2026-05-01 14:05 45.11121 -2.82010 30173 ft 454 kts 11°
2026-05-01 14:06 45.17283 -2.80045 30172 ft 454 kts 11°
2026-05-01 14:06 45.23452 -2.78083 30176 ft 454 kts 11°
2026-05-01 14:07 45.29624 -2.76124 30177 ft 455 kts 11°
2026-05-01 14:08 45.38879 -2.73161 30186 ft 455 kts 11°
2026-05-01 14:08 45.45063 -2.71167 30184 ft 455 kts 11°
2026-05-01 14:09 45.51246 -2.69185 30187 ft 455 kts 11°
2026-05-01 14:09 45.57428 -2.67189 30183 ft 456 kts 11°
2026-05-01 14:10 45.63571 -2.65188 30187 ft 456 kts 11°
2026-05-01 14:10 45.69761 -2.63192 30191 ft 456 kts 11°
2026-05-01 14:11 45.75954 -2.61193 30196 ft 456 kts 11°
2026-05-01 14:11 45.85244 -2.58179 30195 ft 457 kts 11°
2026-05-01 14:12 45.91443 -2.56149 30199 ft 457 kts 11°
2026-05-01 14:12 45.97645 -2.54117 30200 ft 457 kts 11°
2026-05-01 14:13 46.02804 -2.52426 30204 ft 457 kts 11°
2026-05-01 14:13 46.10053 -2.50036 30204 ft 457 kts 11°
2026-05-01 14:14 46.16260 -2.47986 30204 ft 457 kts 11°
2026-05-01 14:14 46.22582 -2.46785 30224 ft 468 kts
2026-05-01 14:15 46.29020 -2.45771 29678 ft 455 kts
2026-05-01 14:15 46.32114 -2.45273 29122 ft 450 kts
2026-05-01 14:15 46.35211 -2.44769 28543 ft 446 kts
2026-05-01 14:16 46.38283 -2.44270 27977 ft 442 kts
2026-05-01 14:16 46.41325 -2.43779 27421 ft 438 kts
2026-05-01 14:16 46.44341 -2.43294 26871 ft 434 kts
2026-05-01 14:16 46.47332 -2.42811 26333 ft 431 kts
2026-05-01 14:17 46.50298 -2.42334 25796 ft 427 kts
2026-05-01 14:17 46.53246 -2.41940 25273 ft 424 kts
2026-05-01 14:17 46.56174 -2.41627 24756 ft 420 kts
2026-05-01 14:17 46.59082 -2.41359 24246 ft 417 kts
2026-05-01 14:18 46.61967 -2.41100 23735 ft 414 kts
2026-05-01 14:18 46.64832 -2.40831 23167 ft 411 kts
2026-05-01 14:18 46.67682 -2.40503 22306 ft 414 kts
2026-05-01 14:18 46.69557 -2.39898 21685 ft 421 kts 17°
2026-05-01 14:19 46.73079 -2.37422 20792 ft 420 kts 35°
2026-05-01 14:19 46.75284 -2.34677 20229 ft 417 kts 48°
2026-05-01 14:19 46.77150 -2.31456 19674 ft 414 kts 51°
2026-05-01 14:19 46.78973 -2.28229 19153 ft 411 kts 51°
2026-05-01 14:20 46.80779 -2.25020 18645 ft 408 kts 51°
2026-05-01 14:20 46.84316 -2.18700 17557 ft 401 kts 51°
2026-05-01 14:20 46.86072 -2.15551 17036 ft 398 kts 51°
2026-05-01 14:21 46.87836 -2.12392 16532 ft 395 kts 51°
2026-05-01 14:21 46.88992 -2.10342 16204 ft 393 kts 49°
2026-05-01 14:21 46.90965 -2.07603 15718 ft 390 kts 39°
2026-05-01 14:22 46.95839 -2.01852 14625 ft 384 kts 39°
2026-05-01 14:22 46.97883 -1.99436 14279 ft 368 kts 39°
2026-05-01 14:22 46.99834 -1.97129 13696 ft 356 kts 39°
2026-05-01 14:22 47.01131 -1.95595 13203 ft 354 kts 39°
2026-05-01 14:23 47.03014 -1.93366 12823 ft 350 kts 39°
2026-05-01 14:23 47.04923 -1.91105 12432 ft 346 kts 39°
2026-05-01 14:23 47.06763 -1.88920 12016 ft 344 kts 39°
2026-05-01 14:23 47.08610 -1.86717 11681 ft 339 kts 39°
2026-05-01 14:24 47.10412 -1.84569 11551 ft 328 kts 39°
2026-05-01 14:24 47.12158 -1.82488 11422 ft 318 kts 40°
2026-05-01 14:24 47.13773 -1.80569 11299 ft 309 kts 39°
2026-05-01 14:24 47.15420 -1.78613 11148 ft 302 kts 39°
2026-05-01 14:25 47.17035 -1.76686 10796 ft 296 kts 40°
2026-05-01 14:25 47.18626 -1.74783 10261 ft 293 kts 40°
2026-05-01 14:25 47.20199 -1.72898 9672 ft 290 kts 40°
2026-05-01 14:25 47.21759 -1.71027 9153 ft 290 kts 40°
2026-05-01 14:26 47.23318 -1.69158 8830 ft 287 kts 40°
2026-05-01 14:26 47.26371 -1.65413 8151 ft 284 kts 41°
2026-05-01 14:26 47.27849 -1.63497 7787 ft 282 kts 42°
2026-05-01 14:27 47.29311 -1.61578 7437 ft 281 kts 42°
2026-05-01 14:27 47.30763 -1.59670 7105 ft 279 kts 42°
2026-05-01 14:27 47.32205 -1.57781 6753 ft 277 kts 41°
2026-05-01 14:28 47.34981 -1.54155 6473 ft 256 kts 41°
2026-05-01 14:28 47.36277 -1.52439 6334 ft 245 kts 46°
2026-05-01 14:28 47.37070 -1.50347 5936 ft 236 kts 81°
2026-05-01 14:28 47.36888 -1.47988 5421 ft 233 kts 117°
2026-05-01 14:29 47.35926 -1.46092 4876 ft 233 kts 132°
2026-05-01 14:29 47.34859 -1.44315 4366 ft 233 kts 132°
2026-05-01 14:30 47.30682 -1.43318 3421 ft 225 kts 220°
2026-05-01 14:30 47.29497 -1.44839 3135 ft 225 kts 221°
2026-05-01 14:30 47.28316 -1.46345 3002 ft 225 kts 221°
2026-05-01 14:31 47.25923 -1.49362 2577 ft 228 kts 221°
2026-05-01 14:31 47.24742 -1.50850 2265 ft 225 kts 222°
2026-05-01 14:31 47.23572 -1.52322 1946 ft 214 kts 221°
2026-05-01 14:31 47.22464 -1.53716 1672 ft 204 kts 222°
2026-05-01 14:32 47.21401 -1.55055 1399 ft 198 kts 221°
2026-05-01 14:32 47.20407 -1.56314 1145 ft 182 kts 225°
2026-05-01 14:32 47.19576 -1.57607 943 ft 165 kts 226°
2026-05-01 14:32 47.18699 -1.58556 777 ft 150 kts 211°
2026-05-01 14:33 47.17779 -1.59223 545 ft 146 kts 208°
2026-05-01 14:33 47.16881 -1.59879 296 ft 143 kts 208°
2026-05-01 14:33 47.15996 -1.60550 105 ft 140 kts 210°
2026-05-01 14:33 47.15253 -1.61122 88 ft 86 kts 208°
2026-05-01 14:34 47.14917 -1.61377 89 ft 43 kts 203°
2026-05-01 14:34 47.14823 -1.61344 91 ft 10 kts 105°
2026-05-01 14:34 47.14868 -1.61159 91 ft 28 kts 43°
2026-05-01 14:34 47.15056 -1.61003 89 ft 33 kts 26°
2026-05-01 14:35 47.15263 -1.60847 88 ft 34 kts 27°
2026-05-01 14:35 47.15472 -1.60687 90 ft 34 kts 28°
2026-05-01 14:35 47.15682 -1.60527 88 ft 34 kts 26°
2026-05-01 14:35 47.15709 -1.60414 89 ft 10 kts 123°
2026-05-01 14:36 47.15661 -1.60347 87 ft 11 kts 139°
2026-05-01 14:36 47.15639 -1.60260 87 ft 13 kts 21°
2026-05-01 14:36 47.15686 -1.60211 86 ft 0 kts 34°